Retour au catalogue

COSMOS 2440

ActifNavigationGEO
NORAD 33108·PAYLOAD·🇷🇺 Russia

Lancé Jun 27, 2008 depuis Baikonur Cosmodrome

Loading…

TLE

FraisSource: Space-Track

Époque: Sep 14, 2026, 21:00 UTC

1 33108U 08033A   26257.87554720 -.00000120  00000-0  00000-0 0  9993
2 33108  10.7506  40.3424 0005458 191.3708 154.2797  1.00261009 66684

Suivez COSMOS 2440 en temps réel avec AllMySat

Download on the App Store